FENGYUN 1C DEB

Satellite information

Favourite Embed

Satellite Type and Status

DEBRISIN ORBIT

Key statistics

Satellite FENGYUN 1C DEB at a glance.

Uptime

9664

Days in orbit

Revolutions

≈ 14.0

Per day

Orbit

SSO

Sun Synchronous Orbit

Inclination

99.0

Latest

Satellite identification and parameters

Extended collection of information and parameters for FENGYUN 1C DEB.

Object identification

Identified? True

Debris? True

Object name: FENGYUN 1C DEB

International designator: 1999-025EXC

Object number (NORAD): 40696

Object ID (CCSDS): 40696

Country: PEOPLES REPUBLIC OF CHINA (PRC)

Current information (Y/N): Y

RCS size: SMALL

Orbital parameters

Period: 103.101 minutes

Inclination: 98.9519 deg

SMA: 7283.418 km

Apoapsis: 963.346 km

Periapsis: 847.219 km

RAAN: 265.8273 deg

Eccentricy: 0.00797204

Argument of periapsis: 187.5176 deg

Mean anomaly: 172.4798 deg

Mean motion: 13.96689743 rev/day

Mean motion (dot): 0.00000133 rev/day2

B* drag term: 0.00012351379 1/REarth

Two-line elements (TLE)

Creation date: Oct. 6, 2025, 7:15 p.m.

Reference frame: TEME

Reference center: EARTH

Epoch: Oct. 4, 2025, 5:24 a.m. UTC

TLE line 0: 0 FENGYUN 1C DEB

TLE line 1: 1 40696U 99025EXC 25277.22558361 .00000133 00000-0 12351-3 0 9997

TLE line 2: 2 40696 98.9519 265.8273 0079720 187.5176 172.4798 13.96689743547090

Live tracking on map

Real-time ground track for satellite FENGYUN 1C DEB.

In-orbit conjunctions

A list of the most updated potential collisions computed for object FENGYUN 1C DEB.

Target Orbit TCA Probability of collision Miss distance Type
COSMOS 1275 DEB LEO 2025-05-07 18:30:40 0.0001429785 201.0 (m) DEBRIS
FENGYUN 1C DEB SSO 2024-11-14 04:52:16 0.0001365113 781.0 (m) DEBRIS

Associated space launch

Chinese polar orbiting meteorological satellite

FENGYUN 1C DEB was lifted into orbit during the mission ‘Long March 4B | Feng Yun 1C’, on board a Long March 4B space rocket.

The launch took place on May 10, 1999, 1:33 a.m. from Launch Complex 7.

For more information about the launch, click the button.

Launch to space Long March 4B | Feng Yun 1C
Long March 4B | Feng Yun 1C

Agency: N/A

Status: Launch Successful

Launch date: May 10, 1999, 1:33 a.m. UTC

Rocket: Long March 4B

Launch pad: Launch Complex 7

Location: Taiyuan Satellite Launch Center, People's Republic of China

...

Latest news about this satellite

There are no fresh news available about this satellite. Check back as we update our databases every day.


Newsletter sign-up

Weekly statistics, charts and insights to help you stay on top of the space industry.